Flag for U.S.A. Weather past 2 weeks in Riverside, California, U.S.A.

Now
62 °F

Clear.


Feels Like: 62 °F
Forecast: 58 / 78 °F
Wind: 6 mph from West

Location: Riverside Municipal Airport

Current Time: May 25, 2015 at 10:01:44 PM

Latest Report: May 25, 2015 at 8:53 PM


Visibility: 10 mi

Pressure: 29.93 "Hg

Humidity: 75%

Dew point: 54 °F

Location of RiversideLocation

Historic Weather in Riverside — Graph

°F

Riverside temperature yesterday

Maximum temperature yesterday: 70 °F (at 4:53 PM)
Minimum temperature yesterday: 58 °F (at 2:53 AM)
Average temperature yesterday: 63 °F

Past Weeks' High & Low Weather Summary

 TemperatureHumidityPressure
High86 °F (May 11, 1:53 PM)93% (May 12, 6:04 AM)30.08 "Hg (May 12, 6:04 AM)
Low52 °F (May 13, 3:53 AM)23% (May 11, 2:53 PM)29.75 "Hg (May 11, 5:53 PM)
Average62 °F66%29.92 "Hg
* Reported May 10 8:53 PM — May 25 8:53 PM, Riverside, Weather by CustomWeather, © 2015

Note: Actual official high and low records may vary slightly from our data, if they occured in-between our weather recording intervals... More about our weather records

Advertising

Riverside weather history for previous 24 hours

 ConditionsComfort  
Time TempWeatherWind HumidityBarometerVisibility
8:53 PM
Mon, May 25
62 °FClear.6 mph75%29.93 "Hg10 mi
7:53 PM65 °FScattered clouds.7 mph68%29.91 "Hg10 mi
6:53 PM68 °FScattered clouds.12 mph63%29.90 "Hg10 mi
5:53 PM71 °FPassing clouds.12 mph57%29.89 "Hg10 mi
4:53 PM73 °FPassing clouds.10 mph51%29.89 "Hg10 mi
3:53 PM72 °FPassing clouds.6 mph53%29.90 "Hg10 mi
2:53 PM71 °FPassing clouds.N/A53%29.92 "Hg10 mi
1:53 PM71 °FSunny.7 mph53%29.94 "Hg10 mi
12:53 PM70 °FPartly sunny.6 mph55%29.96 "Hg10 mi
11:53 AM66 °FOvercast.5 mph63%29.97 "Hg9 mi
10:53 AM63 °FOvercast.5 mph70%29.97 "Hg8 mi
9:53 AM61 °FOvercast.No wind75%29.97 "Hg7 mi
8:53 AM59 °FOvercast.No wind81%29.96 "Hg6 mi
7:53 AM58 °FMostly cloudy.3 mph84%29.96 "Hg6 mi
6:53 AM55 °FFog.No wind90%29.94 "Hg6 mi
5:53 AM54 °FFog.3 mph90%29.92 "Hg5 mi
4:53 AM54 °FPassing clouds.No wind93%29.91 "Hg8 mi
3:53 AM55 °FPassing clouds.No wind90%29.92 "Hg9 mi
2:53 AM56 °FOvercast.No wind87%29.92 "Hg9 mi
1:53 AM57 °FPassing clouds.No wind87%29.92 "Hg10 mi
12:53 AM57 °FClear.No wind87%29.93 "Hg10 mi
11:53 PM
Sun, May 24
58 °FClear.No wind81%29.93 "Hg10 mi
10:53 PM59 °FClear.7 mph81%29.93 "Hg10 mi
Weather by CustomWeather, © 2015

See weather overviewHow to use our weather pages